This is the latest recevied weather packets stored in our database for station/object WB5RFA. If no packets are shown the sender has not sent any weather packets the latest 10 day(s).
| Time | Temp. | Humidity | Pressure | Rain* | Wind** | Luminosity | Snow |
|---|---|---|---|---|---|---|---|
| 1777522391 | 11.67° C | 65% | 1018.3 hPa | 0 mm | - | - | - |
| 1777521911 | 11.67° C | 66% | 1018.3 hPa | 0 mm | - | - | - |
| 1777521432 | 11.67° C | 67% | 1018.3 hPa | 0 mm | - | - | - |
| 1777520952 | 11.11° C | 69% | 1018.3 hPa | 0 mm | - | - | - |
| 1777520471 | 11.11° C | 70% | 1018.3 hPa | 0 mm | - | - | - |
| 1777519990 | 11.11° C | 74% | 1018.1 hPa | 0 mm | - | - | - |
| 1777519512 | 11.11° C | 76% | 1018.1 hPa | 0 mm | - | - | - |
| 1777519031 | 11.11° C | 74% | 1017.9 hPa | 0 mm | - | - | - |
| 1777518551 | 11.11° C | 70% | 1018 hPa | 0 mm | - | - | - |
| 1777518072 | 11.67° C | 68% | 1018 hPa | 0 mm | - | - | - |
| 1777517591 | 12.22° C | 65% | 1018 hPa | 0 mm | - | - | - |
| 1777517111 | 12.22° C | 61% | 1018 hPa | 0 mm | - | - | - |
| 1777516630 | 12.22° C | 60% | 1017.8 hPa | 0 mm | - | - | - |
| 1777516152 | 12.78° C | 61% | 1017.7 hPa | 0 mm | - | - | - |
| 1777515671 | 13.33° C | 60% | 1017.6 hPa | 0 mm | - | - | - |
| 1777515191 | 13.33° C | 56% | 1017.5 hPa | 0 mm | - | - | - |
| 1777514711 | 13.33° C | 56% | 1017.4 hPa | 0 mm | - | - | - |
| 1777514231 | 13.33° C | 55% | 1017.3 hPa | 0 mm | - | - | - |
| 1777513752 | 13.33° C | 55% | 1017.1 hPa | 0 mm | - | - | - |
| 1777513271 | 13.33° C | 56% | 1017.1 hPa | 0 mm | - | - | - |
| 1777512791 | 13.89° C | 56% | 1017.1 hPa | 0 mm | - | - | - |
| 1777512310 | 13.89° C | 56% | 1017 hPa | 0 mm | - | - | - |
| 1777511832 | 14.44° C | 57% | 1017 hPa | 0 mm | - | - | - |
| 1777511351 | 14.44° C | 55% | 1016.9 hPa | 0 mm | - | - | - |
| 1777510871 | 15° C | 54% | 1016.8 hPa | 0 mm | - | - | - |
* Rain latest hour (hover to see other rain measurements)
** Current wind speed in m/s (hover to see current wind gust speed)